Probability
0 0 3 3 0 0 0 0 0 0 0 0 0 0 0 0 0 0 0 0 0 0 0 0 0 0 0 0 0 0 3 0 0 0 0 0 0 0 0 0 0 0 0
6 0 0 3 3 0 0 0 0 0 0 0 0 0 0 0 0 0 0 0 0 0 0 0 0 0 0 0 0 0 3 3 0 0 0 0 0 0 0 0 0 0 0
6 10 3 3 3 3 0 0 0 0 0 0 0 0 0 0 0 0 0 0 0 0 0 0 0 0 0 0 0 0 0 0 3 0 0 0 0 0 0 0 0 0 0
6 10 6 3 6 6 6 0 0 0 0 0 0 0 0 0 0 0 0 0 0 0 0 0 0 0 0 0 0 0 0 0 0 0 0 0 0 0 0 0 0 0 0
6 6 10 6 6 3 3 0 0 0 0 0 0 0 0 0 0 0 0 0 0 0 0 0 0 0 0 0 0 0 0 0 0 0 0 0 0 0 0 0 0 0 0
6 6 6 6 6 3 3 0 0 0 0 0 0 0 0 0 0 0 0 0 0 0 0 0 0 0 0 0 0 0 0 0 0 0 0 0 0 0 0 0 0 0 0
6 6 6 6 3 0 0 0 0 0 0 0 0 0 0 0 0 0 0 0 0 0 0 0 0 0 0 0 0 0 0 0 0 0 0 0 0 0 0 0 0 0 0
13 3 6 6 3 0 0 0 0 0 0 0 0 0 0 0 0 0 0 0 0 0 0 0 0 0 0 0 0 0 0 0 0 0 0 0 0 0 0 0 0 0 0
10 10 6 6 3 0 0 0 0 0 0 0 0 0 0 0 0 0 0 0 0 0 0 0 0 0 0 0 0 0 0 0 0 0 0 0 0 0 0 0 0 0 0
6 6 6 3 3 0 0 0 0 0 0 0 0 0 0 0 0 0 0 0 0 0 0 0 0 0 0 0 0 0 0 0 0 0 0 0 0 0 0 0 0 0 0
6 3 3 0 0 0 0 0 0 0 3 0 0 0 0 0 0 0 0 0 0 0 0 0 0 0 0 0 0 0 0 0 0 0 0 0 0 0 0 0 0 0 0
6 3 0 0 0 0 0 3 3 3 3 0 0 0 0 0 0 0 0 0 0 0 0 0 0 0 0 0 0 0 0 0 0 0 0 0 0 0 0 0 0 0 0
3 3 3 0 0 0 0 0 0 0 0 0 0 0 0 0 0 0 0 0 0 0 0 0 0 0 0 0 0 0 0 0 0 0 0 0 0 0 0 0 0 0 0
6 3 3 0 0 0 0 0 0 0 0 0 0 0 0 0 0 0 0 0 0 0 0 0 0 0 0 0 0 0 0 0 0 0 0 0 0 0 0 0 0 0 0
0 3 3 3 0 0 0 0 0 0 0 0 0 0 0 0 0 0 0 0 0 0 0 0 0 0 0 0 0 0 0 0 0 0 0 0 0 0 0 0 0 0 0
0 3 3 3 0 0 0 0 0 0 0 0 0 0 0 0 0 0 0 0 0 0 0 0 0 0 0 0 0 0 0 0 0 0 0 0 0 0 0 0 0 0 0
0 0 3 0 0 0 0 0 0 0 0 0 0 0 0 0 0 0 0 0 0 0 0 0 0 0 0 0 0 0 0 0 0 0 0 0 0 0 0 0 0 0 0
0 3 3 0 0 0 0 0 0 0 0 0 0 0 0 0 0 0 0 0 0 0 0 0 0 0 0 0 0 0 0 0 0 0 0 0 0 0 0 0 0 0 0
0 0 0 0 0 0 0 0 0 0 0 0 0 0 0 0 0 0 0 0 0 0 0 0 0 0 0 0 0 0 0 0 0 0 0 0 0 0 0 0 0 0 0
0 0 0 0 0 0 0 0 0 0 0 0 0 0 0 0 0 0 0 0 0 0 0 0 0 0 0 0 0 0 0 0 0 0 0 0 0 0 0 0 0 0 0
0 0 0 0 0 0 0 0 0 0 0 0 0 0 0 0 0 0 0 0 0 0 0 0 0 0 0 0 0 0 0 0 0 0 0 0 0 0 0 0 0 0 0
0 0 0 0 0 0 0 0 0 0 0 0 0 0 0 0 0 0 0 0 0 0 0 0 0 0 0 0 0 0 0 0 0 0 0 0 0 0 0 0 0 0 0
0 0 0 0 0 0 0 0 0 0 0 0 0 0 0 0 0 0 0 0 0 0 0 0 0 0 0 0 0 0 0 0 0 0 0 0 0 0 0 0 0 0 0
0 0 0 0 0 0 0 0 0 0 0 0 0 0 0 0 0 0 0 0 0 0 0 0 0 0 0 0 0 0 0 0 0 0 0 0 0 0 0 0 0 0 0
0 0 0 0 0 0 0 0 0 0 0 0 0 0 0 0 0 0 0 0 0 0 0 0 0 0 0 0 0 0 0 0 0 0 0 0 0 0 0 0 0 0 0
0 0 0 0 0 0 0 0 0 0 0 0 0 0 0 0 0 0 0 0 0 0 0 0 0 0 0 0 0 0 0 0 0 0 0 0 0 0 0 0 0 0 0
Height
5841 5842 5843 5844 5845 5846 5846 5847 5847 5847 5847 5847 5847 5847 5846 5846 5845 5844 5843 5842 5841 5839 5838 5836 5834 5832 5830 5828 5825 5823 5820 5818 5815 5812 5809 5806 5802 5799 5796 5792 5789 5786 5782
5836 5837 5838 5839 5840 5840 5841 5841 5842 5842 5842 5842 5842 5841 5841 5840 5839 5838 5837 5836 5834 5833 5831 5830 5828 5826 5824 5822 5819 5817 5814 5812 5809 5806 5803 5799 5796 5793 5789 5786 5783 5780 5776
5830 5831 5832 5833 5833 5834 5835 5835 5835 5836 5836 5836 5835 5835 5834 5834 5833 5831 5830 5829 5828 5826 5825 5823 5821 5819 5817 5815 5813 5810 5808 5805 5802 5799 5796 5792 5789 5786 5782 5779 5776 5773 5770
5823 5824 5825 5826 5827 5828 5828 5829 5829 5829 5829 5829 5829 5828 5828 5827 5826 5825 5823 5822 5821 5819 5818 5816 5815 5812 5810 5808 5805 5803 5800 5798 5795 5792 5789 5785 5782 5779 5776 5773 5770 5767 5764
5815 5817 5818 5819 5820 5821 5821 5822 5822 5822 5822 5822 5822 5821 5820 5820 5819 5818 5816 5815 5814 5812 5811 5809 5807 5805 5803 5801 5798 5795 5793 5790 5787 5784 5781 5778 5775 5772 5769 5766 5763 5760 5757
5808 5809 5811 5812 5813 5814 5814 5814 5814 5814 5814 5814 5814 5814 5813 5812 5811 5810 5809 5807 5806 5804 5803 5801 5799 5797 5795 5793 5790 5788 5785 5782 5779 5776 5773 5770 5767 5764 5761 5758 5755 5753 5750
5799 5801 5803 5804 5805 5806 5806 5806 5806 5806 5806 5806 5806 5805 5805 5804 5803 5802 5800 5799 5798 5796 5794 5793 5791 5789 5787 5784 5782 5780 5777 5774 5771 5768 5765 5762 5759 5756 5753 5750 5748 5745 5742
5791 5793 5794 5795 5796 5797 5798 5798 5798 5798 5798 5798 5798 5797 5797 5796 5794 5793 5792 5790 5789 5787 5786 5784 5782 5780 5778 5776 5774 5771 5768 5766 5763 5760 5757 5754 5751 5748 5745 5742 5740 5737 5735
5782 5784 5785 5786 5787 5788 5789 5789 5788 5789 5789 5789 5789 5788 5788 5787 5786 5785 5783 5781 5780 5778 5777 5775 5773 5771 5769 5767 5764 5762 5759 5756 5753 5751 5748 5745 5743 5740 5737 5734 5732 5730 5727
5772 5774 5775 5776 5778 5779 5779 5779 5779 5779 5780 5780 5779 5779 5778 5777 5776 5776 5775 5773 5771 5769 5767 5765 5763 5761 5759 5757 5755 5752 5749 5747 5744 5741 5739 5736 5734 5731 5728 5726 5724 5722 5720
5763 5764 5765 5766 5767 5769 5769 5770 5770 5770 5770 5770 5770 5769 5768 5767 5766 5765 5765 5763 5761 5759 5757 5755 5753 5751 5749 5747 5744 5742 5740 5737 5734 5732 5729 5727 5724 5722 5720 5717 5716 5714 5713
5752 5754 5755 5756 5757 5758 5759 5759 5760 5760 5760 5760 5759 5759 5758 5757 5755 5754 5754 5752 5751 5749 5747 5745 5743 5741 5738 5736 5734 5732 5729 5727 5724 5722 5719 5717 5715 5713 5711 5709 5707 5706 5705
5741 5743 5744 5745 5747 5747 5748 5749 5749 5749 5749 5749 5749 5748 5747 5746 5745 5743 5743 5741 5740 5739 5737 5734 5732 5730 5728 5726 5723 5721 5719 5717 5714 5712 5710 5707 5705 5703 5702 5700 5699 5698 5697
5729 5731 5732 5733 5735 5736 5737 5738 5738 5738 5738 5738 5738 5737 5736 5735 5734 5733 5732 5730 5729 5728 5726 5724 5721 5719 5717 5715 5713 5710 5708 5706 5704 5702 5700 5698 5696 5694 5692 5691 5690 5689 5688
5716 5718 5720 5722 5723 5724 5725 5726 5726 5727 5726 5726 5726 5726 5725 5724 5722 5722 5720 5719 5718 5717 5716 5713 5710 5708 5706 5704 5702 5700 5698 5696 5694 5692 5690 5688 5686 5684 5683 5682 5682 5681 5680
5703 5705 5707 5709 5711 5712 5713 5714 5715 5715 5715 5714 5714 5713 5713 5712 5711 5710 5709 5708 5706 5705 5704 5702 5699 5697 5695 5693 5691 5689 5687 5685 5683 5681 5680 5678 5677 5675 5674 5673 5673 5672 5672
5691 5693 5695 5697 5698 5700 5701 5702 5702 5702 5702 5702 5702 5701 5701 5700 5699 5699 5698 5696 5695 5693 5692 5690 5688 5686 5684 5682 5680 5678 5677 5675 5673 5672 5670 5669 5668 5666 5666 5665 5664 5664 5664
5678 5680 5682 5684 5686 5687 5688 5689 5690 5690 5690 5690 5690 5689 5689 5688 5688 5687 5686 5685 5683 5682 5680 5679 5677 5675 5674 5672 5670 5668 5666 5665 5663 5662 5661 5659 5658 5658 5657 5656 5656 5656 5656
5666 5668 5670 5671 5673 5674 5675 5676 5677 5677 5677 5677 5678 5678 5677 5677 5676 5676 5675 5673 5672 5670 5669 5668 5667 5665 5663 5662 5660 5658 5657 5655 5654 5653 5651 5650 5650 5649 5648 5648 5648 5648 5649
5653 5655 5657 5659 5660 5662 5662 5664 5664 5664 5665 5665 5666 5666 5666 5665 5665 5664 5663 5662 5661 5660 5659 5657 5656 5655 5653 5651 5650 5648 5647 5646 5645 5643 5642 5642 5641 5641 5640 5640 5640 5641 5641
5641 5642 5644 5646 5647 5649 5650 5651 5652 5652 5653 5654 5654 5654 5654 5654 5653 5653 5652 5651 5650 5649 5648 5647 5645 5644 5643 5641 5640 5638 5637 5636 5635 5634 5634 5633 5633 5633 5632 5632 5633 5633 5634
5629 5630 5632 5633 5635 5637 5638 5639 5640 5640 5641 5642 5642 5642 5643 5643 5642 5642 5641 5640 5639 5639 5638 5637 5635 5634 5632 5631 5630 5629 5628 5627 5626 5626 5625 5625 5625 5625 5625 5625 5626 5626 5627
5616 5618 5620 5621 5623 5624 5625 5626 5627 5629 5630 5631 5631 5631 5631 5631 5631 5631 5630 5629 5629 5628 5627 5626 5625 5624 5623 5621 5620 5619 5619 5618 5618 5617 5617 5617 5617 5617 5617 5618 5618 5619 5620
5605 5606 5608 5610 5611 5612 5613 5614 5616 5617 5618 5619 5620 5620 5620 5620 5620 5620 5619 5619 5618 5617 5616 5615 5615 5614 5613 5612 5611 5611 5610 5610 5609 5609 5609 5609 5609 5610 5610 5610 5611 5612 5613
5593 5595 5596 5598 5599 5600 5601 5603 5604 5605 5606 5608 5608 5609 5609 5609 5609 5609 5609 5608 5607 5607 5606 5605 5605 5604 5603 5603 5602 5602 5602 5602 5601 5601 5602 5602 5602 5602 5603 5603 5604 5605 5606
5581 5583 5585 5586 5587 5589 5590 5592 5593 5594 5596 5597 5597 5598 5598 5598 5598 5598 5598 5598 5597 5597 5596 5596 5595 5595 5594 5594 5594 5594 5594 5594 5593 5594 5594 5594 5595 5595 5596 5596 5597 5598 5598
Wind_Speed
29 28 28 27 26 25 25 25 24 24 25 25 25 25 26 26 26 27 27 28 28 29 29 30 30 31 31 32 32 33 34 34 35 35 36 36 37 37 37 36 35 34 33
31 30 30 29 28 27 27 27 26 26 26 26 27 27 27 27 28 28 29 30 30 31 31 32 32 32 32 33 34 35 35 36 37 37 38 38 38 38 37 36 35 34 33
33 32 32 31 30 29 29 29 29 29 29 29 29 29 29 29 30 30 31 32 32 32 33 33 33 34 34 35 36 36 37 37 38 39 39 39 39 39 38 37 35 34 34
35 35 34 33 32 32 31 31 31 31 31 31 31 31 31 32 32 32 33 34 34 34 35 35 35 35 36 36 37 38 39 39 40 40 40 40 40 39 38 37 36 36 35
38 37 36 35 34 34 33 33 33 33 33 33 33 33 34 34 34 34 35 35 36 36 36 36 37 37 38 38 39 39 40 41 41 41 41 41 40 40 39 38 37 36 35
40 39 38 37 37 36 35 35 36 35 35 35 35 35 35 36 36 36 36 36 37 37 37 38 38 39 39 40 40 41 41 41 42 42 41 40 40 39 39 38 37 36 35
40 41 40 39 39 38 37 37 37 37 37 37 37 36 36 37 36 37 37 37 38 39 39 40 40 40 40 41 41 42 42 42 42 42 41 41 40 39 38 38 36 35 34
42 42 41 41 40 39 38 38 39 39 39 38 38 38 38 38 38 38 39 38 39 39 40 40 40 40 41 41 42 42 42 43 42 42 41 41 40 39 38 37 36 34 33
43 43 43 42 42 41 41 40 40 39 39 39 39 39 39 39 38 38 39 40 41 42 42 42 42 42 43 43 43 43 43 43 43 42 42 41 40 39 38 37 36 35 33
44 45 44 44 45 44 42 41 40 40 40 40 40 41 41 42 41 41 42 43 43 42 42 42 43 43 44 44 44 44 44 44 43 42 42 41 40 39 38 37 35 34 31
46 46 46 45 45 44 44 44 43 42 42 42 42 43 43 44 44 44 43 43 42 42 42 43 44 44 44 44 44 44 44 44 43 42 42 41 40 39 38 36 34 32 30
47 47 47 46 45 45 45 44 44 44 43 43 44 44 44 44 45 44 43 43 43 43 43 43 44 44 45 45 45 44 44 43 42 42 41 41 40 38 37 35 34 32 30
47 46 46 46 46 46 45 46 45 45 45 45 45 45 45 46 45 44 44 44 44 44 44 44 45 45 45 45 44 44 43 43 42 41 40 40 38 37 36 34 33 31 30
47 46 45 45 45 46 45 46 45 46 46 46 45 45 45 45 44 45 45 45 45 44 45 45 45 45 45 45 44 44 43 42 41 41 40 39 38 37 35 33 32 31 30
48 47 47 47 46 46 47 47 47 47 46 45 45 45 45 45 45 46 46 46 45 44 44 45 45 45 45 44 44 43 42 41 40 40 38 37 36 35 33 32 31 30 29
47 47 47 47 46 47 47 48 48 47 47 46 46 46 45 46 46 45 45 45 45 45 45 44 44 44 43 43 43 42 41 40 39 38 37 36 35 33 32 31 30 29 29
48 48 48 48 47 47 47 47 47 47 47 47 47 47 45 44 44 45 45 45 44 44 44 43 42 42 42 42 42 41 40 39 38 37 36 34 33 32 31 30 29 29 27
47 47 48 48 47 46 46 46 47 47 47 46 45 45 44 44 44 44 44 44 44 43 42 42 41 40 41 40 40 38 37 37 36 35 34 33 32 31 30 29 28 27 26
48 48 48 47 47 47 46 46 46 45 45 45 44 44 44 43 43 43 43 42 42 41 41 40 39 39 39 38 37 37 36 35 35 34 33 32 30 30 29 28 28 26 25
47 48 47 47 47 46 46 46 44 43 42 42 42 42 42 41 41 41 41 41 40 39 39 38 38 37 37 37 36 36 35 34 34 33 31 30 29 29 28 27 26 25 24
44 44 44 44 44 45 44 44 44 43 42 42 41 41 40 40 40 40 40 40 39 39 38 37 36 36 37 36 35 34 33 32 32 31 30 29 29 28 27 26 25 24 24
44 44 43 44 44 44 43 43 42 43 43 42 41 40 39 39 39 38 38 38 38 37 37 36 36 36 35 34 33 32 31 31 30 29 29 28 27 27 26 25 24 23 23
43 44 43 44 44 44 43 42 42 42 42 41 40 38 37 37 37 38 37 37 37 37 36 36 35 34 33 32 32 31 30 29 28 27 27 27 26 25 24 24 24 24 24
41 41 41 42 42 42 42 41 41 40 39 39 38 38 37 37 37 37 37 37 36 36 35 34 33 33 32 31 30 29 28 28 27 26 26 26 25 24 24 24 24 24 24
40 40 40 39 39 39 39 39 38 38 38 38 37 37 37 36 36 36 35 35 34 34 33 32 31 31 30 29 29 28 27 27 26 26 25 25 24 24 23 24 24 24 25
38 38 38 38 37 37 37 37 37 38 37 37 37 37 36 36 35 35 35 34 33 33 32 31 31 30 30 29 28 28 27 27 26 26 25 25 24 24 24 24 24 24 25
Wind_Direction
242 244 245 247 249 251 253 256 258 261 263 266 268 270 272 275 277 279 280 282 284 286 288 289 291 293 295 297 299 301 303 304 306 307 307 308 309 309 309 309 309 309 308
243 245 247 249 250 252 254 256 259 261 263 266 268 270 272 274 276 277 279 281 283 286 287 289 291 293 294 296 298 300 302 304 305 306 306 307 307 308 308 307 307 307 307
244 246 248 249 251 252 255 258 260 261 263 266 267 269 272 274 275 277 279 282 284 286 288 289 291 292 294 295 296 298 300 302 304 305 305 305 306 306 306 306 305 305 305
246 248 249 251 252 254 257 259 260 262 264 266 268 269 271 274 275 277 280 282 284 285 287 289 291 292 294 295 296 298 299 301 302 303 304 304 304 304 303 303 303 303 303
246 248 250 252 254 256 259 260 262 263 265 266 268 269 272 274 276 279 281 283 284 285 287 289 291 292 293 294 295 297 299 300 301 302 302 303 302 302 302 301 302 302 302
246 248 250 252 255 257 259 261 262 264 266 268 269 271 273 275 277 279 281 283 284 285 287 289 290 291 292 293 295 297 298 299 301 301 301 301 300 300 300 300 300 300 300
247 250 252 253 255 257 259 261 263 265 268 269 270 271 273 275 278 279 281 283 284 285 286 288 290 290 291 293 294 296 298 298 299 300 299 299 298 299 298 298 298 298 298
249 251 253 255 255 257 260 262 263 266 267 269 271 273 275 276 277 280 281 283 285 286 287 288 289 290 291 292 294 295 296 297 298 298 298 297 297 297 296 295 295 295 295
249 251 253 255 256 257 259 262 263 265 267 269 271 274 276 277 278 280 281 283 285 287 287 288 289 290 291 292 293 294 295 296 296 296 295 295 295 295 294 294 292 291 290
250 251 253 256 257 258 259 261 264 266 268 271 274 275 276 278 279 281 282 283 285 285 287 287 288 289 290 290 291 292 293 294 294 294 293 293 293 293 292 291 290 289 287
253 253 254 257 258 259 260 262 264 266 269 272 274 275 277 279 280 282 281 282 283 284 285 285 286 287 288 289 289 290 291 292 292 292 292 292 291 290 290 289 287 287 285
255 256 255 257 259 260 261 263 265 267 269 271 273 276 277 279 280 281 282 281 283 284 284 285 286 287 287 287 288 289 290 290 290 291 291 291 290 289 288 286 284 283 282
255 256 258 259 261 261 262 263 265 268 270 272 274 277 278 279 279 280 280 281 282 283 284 285 286 286 286 287 287 288 289 289 289 289 289 289 288 287 286 284 282 281 279
255 256 257 258 260 262 263 264 265 268 270 272 274 276 278 278 278 279 279 280 283 284 285 285 286 285 286 287 288 287 288 288 289 288 287 287 286 285 283 282 280 278 275
256 256 258 259 261 262 263 264 266 268 270 273 275 276 277 278 278 279 280 282 283 284 285 285 285 285 286 286 287 287 287 287 287 286 286 285 284 283 281 280 278 275 273
258 258 258 259 261 263 264 266 267 269 270 272 275 277 277 278 279 280 281 282 283 284 285 284 283 284 285 286 286 286 286 286 285 284 284 283 282 281 279 277 275 273 271
260 259 259 260 262 264 265 266 268 269 271 273 276 277 278 279 279 279 280 282 282 283 284 283 283 283 284 285 285 285 285 285 283 283 282 281 281 279 277 275 274 271 268
261 260 260 260 262 263 265 266 268 270 273 274 275 276 277 278 279 279 280 281 281 281 282 282 282 283 284 284 284 284 284 283 282 282 281 280 279 277 275 274 271 268 265
262 262 261 261 261 263 265 267 269 271 272 273 274 275 276 277 278 278 279 280 281 281 281 281 282 282 283 283 283 283 283 283 282 281 280 279 278 276 274 273 269 266 261
263 262 261 262 262 264 265 268 269 271 271 272 272 274 275 276 278 278 279 280 280 280 280 280 281 281 282 282 282 282 282 282 281 279 278 277 276 276 273 271 267 262 258
263 263 263 263 264 264 266 268 268 269 271 272 273 275 276 276 278 278 278 279 279 279 279 279 280 281 281 281 280 280 280 280 279 278 276 274 275 274 271 268 263 259 256
264 264 264 265 266 266 267 269 269 270 271 272 273 274 275 275 277 278 278 277 277 277 277 279 280 281 281 281 280 279 278 278 277 276 274 273 273 271 268 264 260 257 256
264 264 265 266 267 267 268 268 268 268 268 270 271 273 274 275 276 276 276 276 276 276 277 279 280 280 280 279 278 277 276 276 275 273 272 271 270 268 265 262 258 257 256
263 264 265 266 266 266 266 266 267 266 267 268 270 271 273 275 276 276 276 276 276 276 277 278 278 278 277 276 275 274 274 273 272 271 271 269 268 265 263 262 259 259 258
260 262 263 265 266 266 265 264 265 265 266 267 268 270 273 274 274 275 275 274 274 275 276 275 276 276 274 273 272 272 272 271 270 269 269 267 266 264 263 263 261 259 259
259 260 262 263 263 263 262 263 264 265 265 265 267 268 270 270 271 273 274 274 274 274 275 274 274 273 272 271 271 269 269 269 268 267 266 266 265 264 263 262 260 260 259